Boundary Cnty AP, Bonners Fer, ID

3:40 PM PST on December 11, 2017 (GMT -0800)
Boundary Cnty AP, Bonners Fer

Weather History for K65S - March, 2014

Change the Weather History Date:

Tuesday, March 25, 2014

  Actual Average (KSZT) Record (KSZT)
Temperature  
Mean Temperature 37 °F -  
Max Temperature 48 °F 50 °F 60 °F (1912)
Min Temperature 26 °F 28 °F 5 °F (1955)
Degree Days  
Heating Degree Days 28    
Moisture  
Dew Point 27 °F    
Average Humidity 66    
Maximum Humidity 86    
Minimum Humidity 43    
Precipitation  
Precipitation 0.00 in - - ()
Sea Level Pressure  
Sea Level Pressure 29.76 in    
Wind  
Wind Speed 1 mph (South)    
Max Wind Speed 8 mph    
Max Gust Speed -    
Visibility 10 miles    
Events Rain    
Averages and records for this station are not official NWS values.
T = Trace of Precipitation, MM = Missing Value Source: NWS Daily Summary

Daily Weather History Graph

Daily Weather History Graph

Search for Another Location

Airport or City:

Trip Planner

Search our weather history database for the weather conditions in past years. The results will help you decide how hot, cold, wet, or windy it might be!

Date:

Astronomy

Mar. 25, 2014 Rise Set
Actual Time 6:37 AM PDT 7:05 PM PDT
Civil Twilight 6:05 AM PDT 7:37 PM PDT
Nautical Twilight 5:28 AM PDT 8:14 PM PDT
Astronomical Twilight 4:49 AM PDT 8:54 PM PDT
Moon 3:27 AM PDT (3/25) 1:17 PM PDT (3/25)
Length of Visible Light 13h 31m
Length of Day
12h 28m
Waning Crescent, 31% of the Moon is Illuminated
Mar 25
Waning Crescent
Mar 30
New
Apr 7
First Quarter
Apr 15
Full
Apr 22
Last Quarter

Hourly Weather History & Observations

Time (PDT) Temp. Windchill Dew Point Humidity Pressure Visibility Wind Dir Wind Speed Gust Speed Precip Events Conditions
12:10 AM 32.0 °F - 23.0 °F 69% 30.06 in 10.0 mi Calm Calm - N/A   Clear
12:30 AM 30.2 °F - 23.0 °F 75% 30.06 in 10.0 mi Calm Calm - N/A   Clear
12:50 AM 32.0 °F - 23.0 °F 69% 30.05 in 10.0 mi Calm Calm - N/A   Clear
1:10 AM 30.2 °F - 23.0 °F 75% 30.05 in 10.0 mi Calm Calm - N/A   Clear
1:30 AM 30.2 °F - 23.0 °F 75% 30.04 in 10.0 mi Calm Calm - N/A   Clear
1:50 AM 30.2 °F - 23.0 °F 75% 30.03 in 10.0 mi Calm Calm - N/A   Clear
2:10 AM 32.0 °F - 23.0 °F 69% 30.02 in 10.0 mi Calm Calm - N/A   Clear
2:30 AM 30.2 °F - 23.0 °F 75% 30.02 in 10.0 mi Calm Calm - N/A   Clear
2:50 AM 28.4 °F 24.6 °F 23.0 °F 80% 30.01 in 10.0 mi NE 3.5 mph - N/A   Clear
3:10 AM 28.4 °F - 23.0 °F 80% 30.00 in 10.0 mi Calm Calm - N/A   Clear
3:30 AM 28.4 °F - 23.0 °F 80% 29.99 in 10.0 mi Calm Calm - N/A   Clear
3:50 AM 26.6 °F - 23.0 °F 86% 29.98 in 10.0 mi Calm Calm - N/A   Clear
4:10 AM 28.4 °F - 23.0 °F 80% 29.97 in 10.0 mi Calm Calm - N/A   Clear
4:30 AM 28.4 °F - 23.0 °F 80% 29.97 in 10.0 mi Calm Calm - N/A   Clear
4:50 AM 26.6 °F - 23.0 °F 86% 29.96 in 10.0 mi Calm Calm - N/A   Clear
5:10 AM 26.6 °F 22.6 °F 23.0 °F 86% 29.95 in 10.0 mi ENE 3.5 mph - N/A   Clear
5:30 AM 28.4 °F - 23.0 °F 80% 29.94 in 10.0 mi Calm Calm - N/A   Partly Cloudy
5:50 AM 26.6 °F - 23.0 °F 86% 29.93 in 10.0 mi Calm Calm - N/A   Partly Cloudy
6:10 AM 26.6 °F - 23.0 °F 86% 29.92 in 10.0 mi Calm Calm - N/A   Scattered Clouds
6:30 AM 26.6 °F 22.6 °F 23.0 °F 86% 29.91 in 10.0 mi East 3.5 mph - N/A   Partly Cloudy
6:50 AM 28.4 °F - 23.0 °F 80% 29.91 in 10.0 mi Calm Calm - N/A   Partly Cloudy
7:10 AM 28.4 °F - 24.8 °F 86% 29.90 in 10.0 mi Calm Calm - N/A   Mostly Cloudy
7:30 AM 28.4 °F - 24.8 °F 86% 29.90 in 10.0 mi Calm Calm - N/A   Partly Cloudy
7:50 AM 32.0 °F - 24.8 °F 75% 29.89 in 10.0 mi Calm Calm - N/A   Clear
8:10 AM 32.0 °F - 24.8 °F 75% 29.88 in 10.0 mi Calm Calm - N/A   Clear
8:30 AM 32.0 °F - 24.8 °F 75% 29.87 in 10.0 mi Calm Calm - N/A   Clear
8:50 AM 32.0 °F - 24.8 °F 75% 29.85 in 10.0 mi Calm Calm - N/A   Clear
9:10 AM 35.6 °F - 24.8 °F 65% 29.84 in 10.0 mi Calm Calm - N/A   Clear
9:30 AM 35.6 °F - 24.8 °F 65% 29.83 in 10.0 mi Calm Calm - N/A   Clear
9:50 AM 35.6 °F - 23.0 °F 60% 29.82 in 10.0 mi Calm Calm - N/A   Clear
10:10 AM 37.4 °F 34.9 °F 23.0 °F 56% 29.80 in 10.0 mi NNW 3.5 mph - N/A   Clear
10:30 AM 39.2 °F - 23.0 °F 52% 29.79 in 10.0 mi Calm Calm - N/A   Clear
10:50 AM 39.2 °F - 24.8 °F 56% 29.78 in 10.0 mi Calm Calm - N/A   Clear
11:10 AM 41.0 °F - 23.0 °F 49% 29.76 in 10.0 mi Calm Calm - N/A   Clear
11:30 AM 39.2 °F 35.0 °F 26.6 °F 61% 29.74 in 10.0 mi South 5.8 mph - N/A   Clear
11:50 AM 39.2 °F - 26.6 °F 61% 29.73 in 10.0 mi Calm Calm - N/A   Clear
12:10 PM 41.0 °F - 26.6 °F 57% 29.72 in 10.0 mi Calm Calm - N/A   Clear
12:30 PM 42.8 °F - 24.8 °F 49% 29.70 in 10.0 mi Calm Calm - N/A   Clear
12:50 PM 42.8 °F 41.1 °F 26.6 °F 53% 29.69 in 10.0 mi South 3.5 mph - N/A   Clear
1:10 PM 44.6 °F 43.1 °F 26.6 °F 49% 29.67 in 10.0 mi South 3.5 mph - N/A   Clear
1:30 PM 44.6 °F 43.1 °F 26.6 °F 49% 29.66 in 10.0 mi SSE 3.5 mph - N/A   Clear
1:50 PM 44.6 °F - 26.6 °F 49% 29.64 in 10.0 mi Calm Calm - N/A   Clear
2:10 PM 44.6 °F - 26.6 °F 49% 29.63 in 10.0 mi Calm Calm - N/A   Clear
2:30 PM 46.4 °F - 26.6 °F 46% 29.63 in 10.0 mi Calm Calm - N/A   Clear
2:50 PM 46.4 °F - 26.6 °F 46% 29.62 in 10.0 mi Calm Calm - N/A   Clear
3:10 PM 46.4 °F - 26.6 °F 46% 29.61 in 10.0 mi Calm Calm - N/A   Scattered Clouds
3:30 PM 46.4 °F - 26.6 °F 46% 29.60 in 10.0 mi Calm Calm - N/A   Partly Cloudy
3:50 PM 46.4 °F - 28.4 °F 50% 29.60 in 10.0 mi Calm Calm - N/A   Scattered Clouds
4:10 PM 48.2 °F - 26.6 °F 43% 29.60 in 10.0 mi Calm Calm - N/A   Mostly Cloudy
4:30 PM 48.2 °F - 26.6 °F 43% 29.60 in 10.0 mi Calm Calm - N/A   Partly Cloudy
4:50 PM 48.2 °F - 26.6 °F 43% 29.60 in 10.0 mi Calm Calm - N/A   Partly Cloudy
5:10 PM 48.2 °F - 32.0 °F 54% 29.61 in 10.0 mi South 8.1 mph - N/A   Scattered Clouds
5:30 PM 48.2 °F - 32.0 °F 54% 29.60 in 10.0 mi Calm Calm - N/A   Mostly Cloudy
5:50 PM 48.2 °F - 32.0 °F 54% 29.59 in 10.0 mi SW 3.5 mph - N/A   Overcast
6:10 PM 48.2 °F - 33.8 °F 58% 29.59 in 10.0 mi SSW 6.9 mph - N/A   Overcast
6:30 PM 46.4 °F - 35.6 °F 66% 29.58 in 10.0 mi Calm Calm - N/A Rain Light Rain
6:50 PM 46.4 °F 45.2 °F 35.6 °F 66% 29.58 in 10.0 mi SW 3.5 mph - N/A   Overcast
7:10 PM 46.4 °F - 35.6 °F 66% 29.57 in 10.0 mi Calm Calm - N/A   Mostly Cloudy
7:30 PM 46.4 °F - 35.6 °F 66% 29.57 in 10.0 mi Calm Calm - N/A   Overcast
7:50 PM 46.4 °F - 35.6 °F 66% 29.58 in 10.0 mi Calm Calm - N/A   Overcast
8:10 PM 46.4 °F - 35.6 °F 66% 29.57 in 10.0 mi Calm Calm - N/A   Mostly Cloudy
8:30 PM 44.6 °F - 35.6 °F 71% 29.57 in 10.0 mi Calm Calm - N/A   Overcast
8:50 PM 44.6 °F - 35.6 °F 71% 29.57 in 10.0 mi Calm Calm - N/A   Overcast
9:10 PM 44.6 °F - 35.6 °F 71% 29.57 in 10.0 mi Calm Calm - N/A   Mostly Cloudy
9:30 PM 44.6 °F - 35.6 °F 71% 29.57 in 10.0 mi Calm Calm - N/A   Partly Cloudy
9:50 PM 42.8 °F - 35.6 °F 76% 29.56 in 10.0 mi Calm Calm - N/A   Partly Cloudy
10:10 PM 42.8 °F 39.3 °F 35.6 °F 76% 29.56 in 10.0 mi SSW 5.8 mph - N/A   Clear
10:30 PM 41.0 °F - 35.6 °F 81% 29.56 in 10.0 mi Calm Calm - N/A   Clear
10:50 PM 42.8 °F 39.3 °F 32.0 °F 66% 29.56 in 10.0 mi SSW 5.8 mph - N/A   Clear
11:10 PM 44.6 °F 40.7 °F 32.0 °F 61% 29.57 in 10.0 mi SSW 6.9 mph - N/A   Clear
11:30 PM 42.8 °F 38.6 °F 32.0 °F 66% 29.56 in 10.0 mi South 6.9 mph - N/A   Scattered Clouds
11:50 PM 42.8 °F 38.0 °F 32.0 °F 66% 29.56 in 10.0 mi SSW 8.1 mph - N/A   Partly Cloudy